Location: Newark
(48.2308°N, 120.8549°W)
Time: 02:00:51
(UTC+00:00)

FENGYUN 1C DEB - Pass Details

Date: 31 January 2022
Orbit: 822 x 948 km, 99.2° (Epoch: 28 May)

Event Time Altitude Azimuth Distance (km) Brightness Sun altitude
Rises 05:01:52 0° 217° (SW) 3,614 ? -40.0°
Reaches altitude 10° 05:05:33 10° 240° (WSW) 2,673 ? -40.5°
Maximum altitude 05:08:49 15° 273° (W) 2,328 ? -41.0°
Drops below altitude 10° 05:12:06 10° 307° (NW) 2,665 ? -41.5°
Sets 05:15:46 0° 330° (NNW) 3,597 ? -42.1°
